Theta_e
335 331 322 320 317 316 312 308 296 297 296 293 294 295 294 298 301 299 300 301 300 312 326 328 331 325 317 316 315 324 326 323 322 316 314 332 344 346 347 352 353 353 352 353 353 353 353 353 353 353 352 352 352 352 352 352 352 352 352 352 352 352 352 352 352 352 351 351 351 350 350 350 350 350 350 350 350 351 350 351 352 352 350 349 347 347 348 348 348 348 347 346 347 347 347 346 346
330 321 320 319 316 313 305 304 297 295 294 292 294 294 297 298 300 298 299 300 301 303 306 308 320 332 331 330 330 330 327 330 331 330 331 339 344 345 350 352 353 351 352 352 353 353 352 353 353 352 352 352 352 352 351 351 351 351 351 351 352 352 352 352 352 352 352 351 350 350 350 350 350 350 350 351 351 351 351 352 352 350 350 348 349 349 348 349 348 347 348 349 348 347 347 347 346
320 318 317 317 313 311 307 303 292 293 291 289 293 295 297 296 298 299 301 302 304 305 306 307 316 330 328 328 323 326 324 333 334 335 335 341 337 342 351 353 353 353 353 353 352 352 352 351 353 352 352 352 351 352 351 351 351 351 351 351 351 352 352 352 352 352 352 352 352 351 351 350 350 350 350 350 351 350 350 350 350 350 348 348 349 349 349 348 349 349 349 348 348 349 348 347 346
319 320 318 315 306 309 301 298 295 294 290 292 292 296 295 297 298 300 301 302 304 305 306 306 319 334 329 322 328 329 329 330 335 335 332 336 340 346 350 352 353 353 353 352 352 351 351 351 352 352 352 352 352 352 351 351 351 351 351 351 352 352 351 352 352 352 352 352 352 352 352 352 352 351 350 349 350 351 350 350 349 348 348 348 347 348 348 348 349 348 348 349 348 347 346 347 346
317 320 317 313 308 301 300 296 295 294 290 293 292 295 296 298 299 300 302 304 306 306 306 310 326 333 335 332 332 324 328 335 335 338 337 341 346 349 351 352 352 352 351 351 351 351 351 352 352 352 351 351 351 351 351 350 350 351 351 351 351 351 351 351 352 352 352 352 352 352 351 350 350 351 351 350 351 351 351 350 349 349 348 348 349 349 348 348 348 348 348 348 347 347 347 346 345
313 316 316 316 306 306 301 295 293 292 296 295 294 297 298 300 299 301 303 305 305 307 315 318 324 327 328 332 334 328 334 329 336 337 340 340 347 350 352 352 351 350 350 351 351 352 352 352 352 351 351 352 351 350 350 350 350 351 351 351 351 351 351 351 352 352 352 352 352 351 350 349 350 350 350 350 350 349 349 348 348 347 346 347 347 348 348 348 348 347 347 347 348 347 346 345 346
311 314 312 308 304 305 297 294 294 295 297 297 297 298 300 301 302 302 303 303 306 317 331 327 331 331 328 332 335 336 339 339 338 338 343 344 349 351 352 350 350 349 350 350 351 351 351 352 351 351 351 351 350 350 350 350 351 351 351 351 350 350 351 351 352 352 351 351 351 351 350 349 349 351 350 350 350 349 349 348 347 347 347 348 348 348 348 348 347 347 347 347 346 346 345 345 345
310 310 308 303 298 299 296 296 295 296 297 298 301 300 302 302 303 302 301 300 302 304 307 329 332 326 329 336 328 336 341 342 343 345 346 347 349 350 351 350 348 348 349 351 352 351 352 351 351 351 351 351 350 350 350 350 350 351 352 351 351 351 351 351 352 351 351 351 351 351 349 350 349 350 350 350 350 349 349 349 348 348 347 348 347 347 347 346 346 346 346 345 345 346 346 345 345
308 307 302 302 297 295 294 294 295 297 297 298 299 302 305 303 303 301 300 302 302 303 303 311 331 321 327 331 331 335 337 343 345 347 346 347 348 350 350 349 348 347 349 350 352 352 351 351 350 351 351 352 352 350 350 350 350 350 352 352 352 352 352 352 351 351 351 351 351 351 350 350 350 349 350 350 350 350 350 349 348 348 347 347 347 347 346 346 346 346 346 346 345 345 346 345 344
306 305 300 299 298 292 292 294 292 296 296 298 298 299 300 302 301 301 301 303 303 302 304 328 329 321 331 328 331 334 335 342 345 345 346 347 350 350 350 349 350 349 349 350 351 350 349 352 350 351 351 352 351 351 350 350 350 351 351 352 351 351 351 351 351 350 351 351 350 350 351 350 350 349 350 350 350 349 349 348 348 348 347 347 346 346 346 346 347 346 346 346 345 345 345 344 345
302 302 301 297 293 292 291 293 293 296 296 298 300 302 302 303 301 302 305 307 305 301 322 331 326 328 329 329 331 336 340 343 343 340 345 347 349 349 349 350 350 351 349 351 351 350 350 350 353 351 351 351 351 350 350 350 351 351 351 351 351 351 350 351 350 350 350 349 349 349 350 350 349 349 349 349 349 348 348 349 348 348 347 346 346 346 346 346 346 345 346 345 345 344 344 344 344
299 300 299 295 293 292 293 293 294 296 298 298 299 301 303 300 301 313 320 307 305 302 310 330 324 333 328 329 330 336 339 340 342 343 346 348 347 349 349 350 351 351 351 350 350 350 350 351 350 351 352 351 350 351 351 351 351 351 351 351 350 350 350 350 350 350 349 350 350 350 350 349 349 349 349 348 348 348 347 347 348 348 347 347 346 346 346 346 345 345 345 345 344 344 344 344 345
301 297 297 295 293 293 294 292 294 296 297 298 299 301 302 301 307 319 319 306 301 313 314 329 333 333 324 327 333 335 335 339 342 344 346 346 347 349 350 349 350 350 350 350 349 349 350 349 349 349 351 352 350 351 351 351 350 350 350 350 350 350 350 350 350 350 350 350 350 350 349 349 349 348 348 347 348 347 347 348 347 348 348 347 347 346 346 345 345 345 345 344 344 344 343 344 345
302 300 298 293 293 293 293 294 294 293 295 298 299 300 301 300 306 323 323 321 319 319 329 333 334 334 328 329 328 330 334 339 342 343 345 346 348 348 348 348 349 349 349 349 348 348 348 349 349 350 350 351 351 352 351 350 350 350 349 349 350 349 349 349 349 349 349 350 349 349 348 348 348 348 347 348 347 348 348 348 347 347 348 347 347 346 346 345 345 345 344 344 342 341 341 342 344
302 299 300 296 294 292 294 293 294 294 295 298 299 299 301 303 308 324 325 324 324 332 334 338 336 328 324 325 326 331 334 339 341 343 344 345 346 347 347 348 348 348 348 349 349 347 347 348 348 350 351 350 352 353 351 352 350 350 350 349 349 349 349 349 349 349 349 349 349 348 348 348 348 348 348 347 347 347 347 347 346 347 347 347 347 346 346 345 344 344 343 341 340 340 341 341 342
304 301 299 295 293 292 293 294 293 294 296 298 300 299 302 302 304 315 327 330 329 334 335 329 336 325 330 328 333 336 337 340 341 343 344 343 344 345 345 345 346 347 346 348 348 347 348 347 348 348 349 350 351 352 351 350 350 349 350 349 349 349 349 349 349 349 349 349 348 348 346 349 349 347 348 348 347 346 346 345 345 346 346 347 346 346 346 345 344 343 341 339 340 341 341 341 342
303 303 295 295 292 291 294 294 294 293 297 298 301 300 298 300 303 309 334 333 329 329 332 332 331 338 332 333 337 338 339 341 342 341 340 340 341 341 342 344 344 344 344 346 346 346 347 347 347 347 348 349 350 351 350 350 352 350 350 349 349 349 349 349 349 349 348 348 348 347 345 350 350 349 348 347 346 346 345 345 345 345 345 346 345 345 344 343 343 342 339 339 338 339 339 340 342
304 298 296 293 295 292 295 295 296 296 296 300 301 299 299 299 302 303 316 330 330 330 330 333 336 336 340 339 339 340 340 339 339 337 336 336 338 338 339 340 341 340 343 344 346 346 345 346 346 347 348 349 349 349 349 348 349 348 351 349 349 349 349 348 349 351 347 349 346 348 351 352 351 349 347 345 346 346 345 344 344 344 344 344 343 343 342 342 341 340 339 338 338 337 336 342 343
300 296 296 293 295 296 298 297 297 297 299 300 300 299 298 300 299 303 307 309 325 325 327 331 330 334 337 337 337 338 338 337 336 336 334 334 335 335 336 338 339 340 340 342 344 345 345 346 346 346 346 348 348 349 348 348 350 352 350 349 348 347 348 349 350 350 351 350 350 349 351 352 350 347 347 345 346 344 345 344 344 344 343 343 343 342 342 341 340 338 338 337 336 334 340 341 342
301 298 294 295 297 297 296 298 299 299 300 300 300 301 298 301 299 309 307 309 322 312 323 326 328 329 332 333 336 335 335 335 335 335 333 334 335 335 336 337 337 338 340 341 343 345 345 344 345 345 347 347 347 347 348 348 350 350 350 348 347 351 351 350 350 350 350 350 349 349 350 348 347 349 346 346 345 344 344 344 343 342 342 342 341 341 341 340 337 337 335 334 336 339 340 339 339
301 298 296 297 297 298 299 298 300 301 299 300 300 300 301 302 300 306 312 302 302 312 326 328 328 331 332 333 334 334 334 333 333 334 333 335 336 337 337 337 337 338 341 342 344 343 344 345 345 345 347 346 346 346 347 348 350 348 346 346 346 350 348 348 348 349 348 347 347 348 346 347 346 348 348 345 343 343 343 343 343 342 343 341 340 340 339 336 337 336 336 336 337 338 338 340 341
301 299 301 299 300 299 302 302 302 301 300 300 300 299 301 302 301 305 302 298 300 305 321 331 333 335 333 332 333 334 332 331 331 332 333 335 336 336 338 339 340 341 342 340 341 343 344 344 345 345 345 345 346 346 346 346 348 344 344 344 344 347 347 345 346 346 346 346 346 346 346 348 349 348 345 344 342 342 340 340 340 340 339 339 339 338 337 338 337 336 336 336 337 339 340 341 341
297 301 301 301 302 300 302 302 303 301 301 300 299 301 299 300 299 301 300 300 304 318 326 330 334 337 337 336 334 332 332 330 330 331 333 333 335 336 337 338 337 338 339 340 342 342 343 345 345 345 344 344 346 347 347 346 346 344 343 344 343 344 345 344 343 344 345 345 345 345 345 347 347 346 343 342 341 342 340 339 338 340 339 339 341 340 339 339 337 337 335 337 339 340 340 340 342
299 297 300 301 300 300 302 303 303 302 299 300 301 300 298 299 297 302 301 304 308 314 330 332 336 338 337 334 334 332 332 331 331 332 333 329 330 330 334 336 338 338 337 338 341 342 344 344 345 345 344 344 343 345 345 345 343 342 342 344 344 344 344 344 343 344 344 345 344 345 345 345 344 343 341 340 339 342 339 339 340 340 340 340 342 342 338 336 336 336 337 338 338 340 339 340 340
298 298 299 301 301 302 303 302 300 300 299 300 298 297 299 299 299 299 300 303 312 328 334 335 337 337 336 334 334 334 333 332 330 330 332 332 331 331 330 332 335 335 333 335 338 340 341 343 343 343 342 342 343 342 340 342 342 342 342 342 342 344 344 343 343 344 344 344 345 344 344 344 344 343 341 340 340 340 340 340 340 340 341 340 341 340 339 337 337 338 340 340 342 341 342 342 341
300 300 300 301 301 303 302 301 301 301 300 298 297 298 300 299 299 298 302 303 326 336 336 336 336 335 334 333 335 334 327 326 327 330 332 331 331 329 329 330 331 330 330 332 332 337 340 343 342 342 343 341 343 343 342 341 342 341 341 341 342 343 341 341 342 342 343 344 343 344 344 345 344 343 340 341 340 339 340 341 341 339 339 340 341 340 341 341 340 340 340 341 340 340 340 341 342
300 300 301 301 302 300 299 298 299 298 296 297 297 298 298 299 298 298 306 321 333 334 333 334 334 333 333 334 332 328 326 327 329 333 334 333 331 330 329 329 330 330 332 332 336 338 339 340 341 342 343 343 343 341 341 341 342 341 340 341 341 341 341 341 341 341 341 343 344 344 344 344 344 343 341 340 340 339 339 340 340 340 339 341 342 340 340 342 341 340 341 341 338 336 337 339 340
299 300 298 297 297 296 297 296 296 297 299 297 298 297 297 298 298 299 303 330 333 331 331 331 332 332 333 328 327 328 328 329 329 330 330 331 331 331 329 328 328 329 329 333 338 340 340 340 342 343 343 342 341 341 341 340 340 340 340 340 340 340 340 340 339 341 340 342 343 344 344 344 344 343 342 340 340 340 340 340 341 341 339 341 341 341 339 338 339 337 338 337 336 335 335 338 339
298 297 295 296 296 297 297 296 298 296 299 298 299 297 296 296 297 301 310 329 331 330 329 330 331 332 328 328 326 326 327 327 329 329 333 333 334 333 330 331 330 329 332 336 339 340 339 341 341 342 342 342 342 340 340 338 339 339 340 339 338 339 339 340 339 340 341 341 342 343 344 344 344 342 343 341 341 340 340 340 340 341 340 340 340 340 339 339 338 337 336 336 336 336 336 337 336
297 296 295 294 295 295 296 296 295 295 298 296 298 291 295 297 299 300 300 328 330 328 327 329 330 331 326 326 325 326 327 327 327 330 333 335 335 335 332 332 332 332 333 336 338 338 340 341 342 341 341 341 341 340 340 339 338 339 338 340 339 338 339 340 340 341 340 339 341 343 343 343 343 343 342 341 341 341 340 340 340 340 340 339 339 340 338 337 338 338 336 337 335 336 336 336 334
296 295 295 292 292 292 296 295 296 296 297 295 299 292 295 298 300 300 303 328 327 324 326 327 329 329 326 326 325 325 325 328 329 331 334 336 336 336 336 335 334 335 336 336 336 338 339 340 341 340 341 340 341 340 339 338 338 337 336 337 338 338 338 339 340 340 339 339 340 342 342 342 343 342 342 342 341 342 340 339 339 339 339 339 339 338 338 337 337 336 336 335 335 334 333 333 332
294 292 291 291 291 293 296 298 296 295 298 298 298 293 294 297 299 300 303 328 328 325 326 327 328 328 326 326 327 325 325 327 330 332 334 335 337 337 337 335 336 335 335 335 338 338 338 339 340 339 339 339 339 338 338 338 337 337 337 337 337 338 338 338 338 338 338 339 340 341 342 342 342 342 342 342 341 341 341 340 339 339 338 338 337 336 336 336 337 336 336 336 333 332 332 331 332
293 292 292 290 290 291 293 295 295 295 296 298 296 293 295 297 298 300 311 327 327 325 326 327 327 328 326 327 327 327 325 325 327 330 332 335 336 336 335 335 335 335 334 335 335 337 337 339 339 338 337 338 338 337 337 335 337 337 337 337 337 338 338 337 337 338 337 338 340 340 341 342 341 342 342 343 342 341 341 340 338 337 338 338 336 336 336 336 336 335 334 335 335 332 330 330 331
291 291 291 291 290 291 290 296 296 297 297 295 297 295 296 298 300 301 311 326 325 324 324 326 327 329 327 327 327 327 325 324 325 328 331 333 334 334 335 334 335 335 336 336 337 336 336 337 338 338 337 337 337 336 335 335 337 337 337 336 337 336 337 337 337 337 337 339 340 339 341 341 341 341 342 341 341 342 341 339 337 337 337 337 336 336 336 336 336 335 333 334 333 332 330 331 331
290 291 290 290 290 290 291 290 294 296 296 295 295 295 295 298 300 299 302 321 325 324 324 325 326 328 327 327 327 327 326 326 327 330 332 333 333 334 334 334 334 335 336 336 337 337 337 336 336 337 337 337 336 336 336 336 337 337 335 336 336 335 336 336 336 337 338 338 339 340 340 341 341 341 340 340 340 339 338 339 337 337 338 337 336 335 334 334 334 334 333 332 332 332 331 331 331
290 291 290 290 290 291 290 293 296 295 295 294 295 294 296 298 300 301 300 303 322 324 325 325 327 327 328 327 328 328 327 327 330 331 333 334 333 334 334 334 334 335 335 335 335 336 336 336 336 336 336 337 336 336 336 336 335 333 332 333 334 334 334 334 337 338 339 339 339 339 339 340 339 339 339 339 340 338 337 337 336 337 337 336 335 334 334 334 334 333 333 331 330 330 332 332 333
291 291 291 291 290 291 291 292 296 296 294 294 295 296 296 297 299 302 301 301 311 322 322 323 325 326 327 327 328 327 327 328 331 332 333 333 333 333 334 333 333 334 334 334 334 334 335 335 335 333 334 334 333 333 333 333 332 332 332 332 332 333 333 334 335 337 338 339 339 338 339 338 339 339 338 338 338 338 338 338 336 336 336 335 334 335 335 335 336 335 332 332 330 329 329 332 333
292 292 291 292 291 291 292 293 296 295 294 293 296 294 296 298 301 302 300 300 302 315 320 321 324 325 327 327 327 327 328 331 332 330 331 333 332 333 333 332 332 330 331 333 333 333 334 335 334 331 332 333 333 334 334 334 333 334 333 332 332 333 333 333 333 336 337 338 339 339 339 339 339 338 338 338 338 338 337 337 337 336 336 336 336 336 336 335 335 334 332 330 332 330 329 332 331
292 292 292 290 291 291 293 292 294 295 294 293 295 294 296 299 301 301 300 300 303 312 322 323 324 324 325 327 328 328 327 329 329 328 330 330 332 332 331 331 331 332 331 331 333 333 333 333 332 331 331 332 332 334 335 333 335 336 335 334 333 333 336 337 336 336 337 336 338 338 339 339 338 338 338 338 338 338 339 339 338 337 336 336 334 333 334 334 334 333 332 329 327 331 330 332 332
292 291 290 289 291 289 289 295 294 296 295 294 295 294 296 300 301 300 301 299 301 306 309 322 326 325 325 326 327 326 327 328 327 325 326 328 329 330 330 330 330 330 330 331 331 332 332 333 332 330 331 331 332 334 334 336 337 338 337 335 335 335 333 335 337 337 337 336 336 337 338 338 338 339 338 338 339 340 340 339 339 337 336 337 335 334 333 332 333 332 332 331 330 326 327 328 331
293 292 291 290 289 291 290 292 294 296 297 296 294 293 295 298 296 300 304 307 308 307 307 310 323 327 329 330 329 329 327 328 328 326 326 327 327 328 328 329 330 329 329 330 331 331 332 331 332 332 331 331 333 333 335 336 336 334 333 334 335 335 335 335 334 333 334 335 335 336 337 339 339 338 339 339 338 339 339 339 338 337 336 336 336 336 333 334 333 333 333 332 330 328 326 327 328
292 294 293 293 293 292 292 292 291 292 292 296 293 289 291 296 295 299 305 309 309 310 305 306 314 324 327 327 327 329 328 329 329 328 326 327 328 328 329 329 329 329 329 331 332 332 332 331 332 333 333 331 332 333 334 335 333 332 331 330 330 330 330 330 330 330 331 333 334 338 338 338 339 338 338 339 338 338 338 338 338 336 337 336 337 337 336 335 334 334 334 334 332 332 330 327 325
290 292 294 294 293 293 291 290 291 288 287 293 295 289 286 296 295 300 305 307 308 310 309 307 311 319 325 325 326 326 328 328 330 330 328 327 328 327 328 329 330 329 330 332 331 331 331 332 333 333 333 333 333 333 335 335 333 333 333 333 333 332 329 331 334 335 335 335 337 337 336 338 338 338 338 339 338 338 338 337 338 338 336 334 334 336 334 334 333 335 335 336 334 332 331 327 326
289 295 292 293 292 291 291 291 291 290 295 296 292 293 289 289 295 301 304 304 306 307 308 311 313 317 322 324 325 326 327 328 328 328 328 330 329 327 327 329 330 330 331 331 330 330 330 331 332 332 333 332 333 333 335 335 333 334 335 335 334 333 333 331 334 335 337 336 335 335 336 336 337 338 338 338 338 338 338 337 337 337 336 335 334 335 336 335 334 333 331 331 334 333 332 331 328
292 293 293 292 293 293 292 291 291 292 291 289 292 293 289 288 295 298 303 302 305 306 307 308 313 318 321 323 324 326 328 329 328 326 327 329 328 327 328 328 329 330 330 330 330 330 330 331 331 332 332 332 332 333 334 334 334 335 335 334 334 335 334 333 334 334 334 335 335 335 335 334 335 336 337 338 338 337 337 337 337 336 336 336 335 334 337 335 334 333 331 330 331 333 335 335 331
295 294 294 294 293 293 293 292 291 291 289 286 291 292 287 288 295 297 302 302 303 305 308 310 311 315 319 322 325 326 327 327 328 326 327 327 327 327 328 329 329 329 330 331 331 330 330 330 330 330 331 332 332 333 333 333 335 335 334 335 334 332 332 331 333 332 332 334 334 334 333 332 332 332 333 335 337 337 337 338 337 336 337 336 334 334 336 335 335 335 335 335 335 335 333 334 333
295 295 294 293 292 293 293 293 292 290 284 288 292 292 290 285 293 296 301 301 302 304 307 310 313 314 317 321 324 325 324 323 325 325 325 326 327 327 328 327 328 329 330 330 329 329 329 329 329 329 330 331 332 332 333 334 335 335 335 335 333 331 330 330 329 329 331 332 332 331 331 330 330 330 331 333 335 335 336 336 336 337 337 338 335 335 336 335 336 336 336 336 335 335 333 334 334
295 293 292 292 291 292 291 290 292 284 284 290 289 291 291 284 290 297 300 305 307 307 306 308 310 314 315 320 322 322 322 321 319 318 319 318 320 322 325 326 327 328 329 329 329 329 329 329 329 328 328 329 331 332 333 333 333 334 335 334 333 332 330 329 329 329 330 331 331 330 329 328 329 329 331 331 332 333 334 334 335 336 335 335 335 336 336 335 336 335 335 335 336 335 336 334 334
293 292 291 287 285 285 282 286 282 284 284 289 288 288 288 288 294 299 304 306 308 310 309 308 311 314 317 318 319 319 318 317 317 317 318 319 320 321 323 325 326 326 327 328 328 328 328 328 328 327 326 326 329 331 332 332 333 333 333 333 333 332 330 331 331 330 331 330 330 329 328 327 327 328 329 330 332 333 334 334 334 334 334 335 335 335 336 335 335 335 335 335 335 333 333 334 332
291 290 289 286 283 280 276 282 283 285 289 289 288 291 287 293 296 304 305 308 310 311 312 313 316 315 314 315 314 315 317 317 318 320 321 320 321 324 325 325 326 327 327 327 327 327 327 326 327 327 326 327 329 329 331 331 333 333 333 333 332 330 330 331 331 330 330 330 330 329 329 328 327 329 329 331 331 332 333 334 335 335 334 334 334 335 335 335 336 333 335 334 333 333 333 333 333
291 293 291 290 288 284 278 283 279 283 286 289 292 288 287 289 297 306 308 310 312 313 314 314 315 315 315 315 315 315 315 317 319 320 320 320 322 325 326 326 326 327 327 327 327 327 327 325 324 325 324 326 327 327 328 329 331 332 332 332 331 329 328 329 330 331 330 329 330 330 330 329 328 329 329 330 330 332 331 331 332 332 332 333 333 334 333 334 334 333 334 334 334 333 333 333 332
292 292 294 289 288 294 286 286 287 287 286 286 287 288 293 295 303 307 310 311 311 312 312 312 312 313 314 313 313 314 315 317 320 321 322 322 323 326 326 327 327 327 327 327 327 326 324 322 320 319 322 322 322 322 325 328 329 330 331 330 330 329 327 328 327 327 329 330 330 329 329 330 330 329 328 328 329 331 330 330 330 330 330 330 330 330 330 331 331 333 332 333 332 330 333 333 333
291 291 288 291 297 294 286 284 286 283 284 284 289 292 295 301 301 306 308 308 308 310 310 311 311 312 315 314 313 314 317 318 321 321 322 323 324 325 326 327 327 327 326 326 325 322 321 320 318 317 317 319 320 322 322 325 326 326 328 329 328 328 327 325 324 326 328 329 329 329 328 327 328 329 327 327 328 330 331 330 329 328 328 327 326 326 326 327 328 330 331 331 331 330 332 331 331
291 288 292 294 295 297 291 284 284 284 281 283 289 290 293 292 290 303 304 305 307 307 308 309 311 312 312 313 314 315 317 318 320 321 322 323 324 324 325 326 327 327 327 324 321 322 323 321 318 318 318 318 320 320 321 322 323 324 325 325 326 327 326 326 326 327 327 326 325 326 326 325 326 326 326 326 328 328 328 328 329 327 326 325 325 324 323 324 326 326 326 327 326 329 328 328 329
295 293 297 292 287 286 289 287 279 279 279 283 288 288 290 293 294 299 299 302 305 307 308 308 309 310 311 312 314 315 317 318 319 319 320 321 322 324 325 326 327 328 327 322 322 324 326 324 320 320 319 320 321 321 321 322 323 324 324 325 325 326 328 327 327 327 326 325 324 324 326 327 326 325 325 326 326 326 326 326 327 326 325 324 324 324 324 324 325 324 324 323 323 325 325 325 326
295 295 294 295 295 293 287 288 290 288 281 280 283 288 287 295 296 297 299 301 304 306 306 307 308 309 310 311 314 315 316 317 317 318 319 320 321 323 325 326 325 327 324 322 323 325 327 326 322 321 321 322 322 321 321 321 323 323 323 325 325 326 326 325 325 326 326 325 325 325 325 326 326 324 325 326 326 325 325 325 325 325 324 324 323 323 325 324 324 324 323 322 323 324 323 324 324
291 293 292 293 295 294 294 292 289 287 284 283 283 283 290 296 300 300 300 302 303 306 306 307 308 309 310 311 311 313 315 316 317 318 318 320 321 322 323 323 322 321 322 322 324 326 327 326 326 324 322 321 321 321 321 321 322 322 322 322 323 325 326 326 326 326 327 326 326 325 326 327 324 323 324 324 325 324 324 324 323 323 323 323 323 323 325 325 323 322 323 322 321 321 320 321 322
293 293 292 294 291 289 286 284 289 288 288 283 282 282 292 295 303 303 302 304 305 306 308 307 308 309 310 311 312 312 312 313 316 318 319 319 320 321 322 321 321 321 322 322 323 325 326 325 326 326 324 323 323 323 323 323 322 322 322 322 323 325 326 326 326 326 326 325 325 325 326 325 325 323 324 323 323 324 324 323 322 322 322 321 322 322 323 323 321 323 323 323 323 321 320 320 322
Wind_Speed
2 1 1 0 1 2 1 3 4 1 1 3 4 3 1 2 3 5 6 1 3 2 0 1 2 2 7 2 6 3 2 3 1 5 0 3 6 12 12 16 19 18 18 15 15 16 17 18 19 20 20 21 19 18 20 22 21 20 18 17 17 18 18 18 18 18 18 17 18 18 18 18 19 18 17 17 16 15 16 18 19 20 21 20 20 20 20 19 19 20 19 18 18 17 17 17 17
1 1 0 1 1 1 3 2 2 1 0 3 6 1 3 1 2 5 4 1 1 4 4 8 4 4 2 2 2 1 4 5 3 2 1 5 8 8 13 18 18 19 16 15 14 14 15 18 19 20 21 21 19 19 19 18 18 19 20 19 17 17 18 18 18 17 17 17 18 18 18 18 18 18 17 17 15 14 14 18 20 20 20 20 20 20 19 19 19 18 18 17 17 16 16 15 16
2 2 2 1 2 3 4 1 2 1 2 6 2 5 4 3 5 2 5 7 8 10 9 10 4 3 3 2 5 3 2 3 4 4 5 10 12 8 15 17 18 17 17 14 14 14 13 17 18 19 21 20 21 20 20 19 18 17 17 18 18 18 17 17 17 17 18 17 17 17 18 19 19 18 17 16 12 12 13 15 18 19 20 19 19 19 19 18 18 18 17 16 15 15 14 14 13
2 1 1 1 3 2 2 2 1 3 3 1 4 2 4 4 5 5 4 7 9 10 6 6 3 2 3 2 4 2 2 1 1 6 6 10 8 12 15 16 17 14 13 13 13 13 13 18 19 19 20 20 20 20 20 20 20 18 18 17 17 18 17 17 17 16 16 16 17 17 17 17 17 17 17 14 11 13 14 14 16 18 17 17 18 17 17 17 17 17 17 15 15 14 14 13 11
2 1 1 1 2 3 2 1 1 1 7 3 1 1 4 4 4 4 6 6 10 12 8 3 2 3 5 5 3 2 3 2 3 3 7 6 10 11 16 16 14 14 14 14 14 13 14 20 18 18 19 20 20 20 20 20 20 19 19 18 18 17 18 18 16 15 15 16 15 15 16 17 18 18 16 14 13 13 13 14 14 14 14 14 14 15 15 15 16 16 15 15 15 14 13 11 10
2 0 1 1 1 2 3 2 3 6 2 2 4 0 2 0 5 7 12 9 12 11 5 5 2 3 2 4 3 2 3 2 4 4 7 8 14 14 16 14 14 14 14 14 14 12 14 20 17 18 19 20 19 20 20 21 20 20 19 18 18 18 16 15 15 16 15 16 16 17 17 17 18 18 17 16 14 14 15 15 13 13 13 14 15 16 16 15 15 15 14 14 14 13 11 10 8
2 2 2 3 3 1 2 3 5 5 5 6 6 8 5 5 7 8 12 11 3 3 2 3 3 5 4 4 4 3 2 3 5 6 6 13 14 15 15 14 14 15 14 13 13 13 18 17 17 18 19 19 19 20 20 20 20 20 19 18 18 18 16 14 13 13 15 15 17 18 16 16 16 16 15 16 15 16 16 14 14 14 13 13 15 15 16 15 14 14 14 13 12 11 10 9 8
1 2 1 2 2 1 2 2 6 3 2 9 3 7 6 10 11 8 11 5 3 1 1 2 2 5 3 1 1 4 6 4 5 9 11 13 14 13 14 14 15 15 14 13 13 13 17 16 17 18 19 19 22 21 21 20 20 19 18 17 16 15 15 14 12 13 13 15 17 17 16 16 15 15 16 16 15 15 15 15 14 14 14 13 13 15 15 15 15 15 14 12 11 10 9 9 8
1 2 1 2 3 2 1 5 4 3 7 5 8 6 10 11 11 9 10 7 8 8 9 7 5 5 4 3 4 3 5 5 9 13 14 14 15 14 11 14 15 14 14 12 13 13 15 15 16 17 19 20 20 21 21 20 19 19 18 17 15 14 13 12 14 11 12 13 15 16 16 15 15 14 16 16 15 14 14 14 14 14 13 13 14 14 15 15 15 14 13 11 10 10 10 9 10
2 2 3 1 2 4 1 4 3 2 4 1 7 9 10 7 8 5 10 11 8 5 5 1 1 4 5 3 6 4 3 6 11 13 13 14 14 13 13 14 15 17 14 13 13 13 13 16 14 16 17 19 19 19 18 19 19 17 16 15 14 14 13 12 12 13 12 13 14 14 14 14 13 14 15 15 14 14 13 14 14 14 13 13 14 14 15 15 14 14 12 11 9 10 10 10 11
3 2 2 3 2 3 6 4 4 4 3 5 6 6 6 6 5 8 7 12 6 5 0 6 5 6 4 3 3 2 4 8 11 13 13 13 13 14 13 13 14 15 17 15 14 12 13 15 16 14 16 17 18 18 17 17 17 16 15 14 14 14 14 13 15 14 14 15 15 14 14 14 14 13 13 14 14 12 13 14 14 14 14 13 14 14 14 14 13 13 12 10 9 9 10 10 11
2 2 2 2 3 4 3 5 5 5 6 3 1 1 2 7 5 7 9 9 4 3 5 9 5 8 6 4 3 4 6 7 10 12 12 13 12 13 13 12 14 14 16 17 15 14 14 13 14 15 14 16 17 17 16 16 16 16 15 14 14 14 14 14 14 14 15 14 13 13 13 13 13 12 12 12 13 12 12 14 14 14 15 14 14 14 14 13 12 12 11 11 9 9 10 10 10
1 0 3 2 2 2 0 4 4 4 6 1 2 4 6 5 9 7 7 5 3 3 2 8 6 3 5 5 3 5 7 7 9 11 12 11 12 11 11 13 14 15 15 16 16 15 15 13 13 14 14 17 16 16 16 15 15 15 15 15 15 14 15 14 15 14 13 12 12 13 13 13 12 12 12 12 13 11 12 11 13 14 14 14 14 13 12 12 12 12 11 11 10 9 8 10 10
3 2 3 4 2 2 2 2 1 5 2 1 2 7 3 5 8 5 5 8 2 1 5 4 8 4 5 5 2 4 6 8 11 12 9 12 11 12 13 12 14 15 14 15 15 15 14 13 13 13 15 14 15 14 15 15 15 15 16 15 15 14 14 14 14 13 12 12 12 13 13 13 13 13 12 11 12 9 8 10 12 14 14 14 14 13 12 11 11 11 11 11 10 8 7 8 9
3 1 1 1 2 1 2 4 2 2 0 1 2 9 9 1 6 5 6 7 4 3 3 1 2 5 3 8 6 8 10 12 13 10 11 12 13 13 14 13 13 14 13 14 15 16 14 13 13 13 14 13 14 11 12 14 16 16 16 15 15 15 14 14 13 13 13 13 14 14 14 14 13 13 12 12 11 9 9 8 11 14 14 14 14 13 12 10 10 11 11 9 8 7 7 7 7
2 3 1 3 4 3 3 4 1 3 0 0 3 4 11 2 4 8 5 3 2 3 1 4 1 2 3 10 2 13 15 14 13 12 11 15 13 12 13 12 12 13 13 13 14 14 14 14 13 13 13 13 12 12 12 14 16 16 15 15 15 14 14 14 14 13 14 14 14 13 13 12 12 12 15 13 13 9 6 8 10 12 14 15 14 13 11 10 10 10 9 8 7 6 6 6 6
2 1 3 1 8 5 3 4 5 3 3 2 7 9 8 11 5 3 1 2 3 1 3 3 3 4 3 0 10 17 17 15 13 14 14 11 12 10 10 11 9 11 10 13 13 13 14 14 15 12 13 13 12 12 12 13 13 16 14 15 15 14 13 14 14 15 14 13 13 13 11 9 9 9 9 10 12 9 8 9 10 11 12 14 14 13 11 9 9 9 9 8 6 4 5 7 7
2 4 2 5 5 4 3 6 6 3 3 7 10 7 9 12 11 6 4 2 3 2 2 2 2 2 2 7 15 17 17 17 16 15 11 13 12 12 12 12 12 12 12 12 12 14 13 13 14 14 12 13 12 10 10 10 11 13 13 13 13 13 13 13 12 10 11 9 12 10 7 6 6 7 9 10 9 10 9 9 10 11 13 13 13 11 10 9 9 9 8 7 4 3 1 4 6
3 2 2 10 2 1 4 1 1 4 8 10 7 2 5 9 5 5 7 5 1 3 1 3 2 5 9 13 16 18 18 16 16 15 16 16 14 16 14 13 13 14 13 12 11 14 12 13 13 13 14 13 13 12 10 10 11 8 10 11 9 12 12 10 10 10 9 10 9 8 6 5 7 8 7 8 8 10 10 10 11 12 12 12 12 10 9 8 8 8 8 7 5 1 1 3 3
1 4 6 7 2 1 3 3 4 4 6 9 10 7 6 8 2 3 5 8 4 7 3 1 4 5 10 14 16 17 17 17 15 15 17 17 16 17 16 16 15 15 14 12 13 11 12 12 14 13 14 14 12 10 10 10 9 8 8 9 9 7 8 8 9 8 8 8 8 7 6 8 8 6 11 14 11 8 9 9 11 12 12 11 10 8 9 8 9 9 8 4 2 1 3 3 3
3 3 8 1 3 2 2 3 5 6 2 7 7 8 11 3 4 3 4 10 5 4 4 6 7 8 11 15 16 16 16 16 15 14 16 16 16 15 15 14 13 12 11 12 11 11 12 12 12 13 13 14 12 10 11 9 9 8 8 8 8 6 7 6 6 7 7 8 8 6 8 8 8 7 7 7 6 7 7 7 7 6 5 6 5 5 4 4 3 3 3 2 1 2 3 3 3
4 9 2 6 2 2 0 6 5 5 1 4 6 10 10 9 3 3 5 5 8 4 2 8 6 11 14 16 16 14 15 15 14 15 16 14 15 13 10 10 11 10 9 10 10 12 12 11 12 11 12 12 11 10 11 10 10 9 8 8 8 6 6 6 5 6 7 8 7 7 8 7 7 6 7 7 7 7 7 6 5 5 5 4 3 4 4 4 3 3 3 2 1 1 2 2 2
6 8 7 3 5 7 2 4 6 2 5 8 7 4 6 7 10 5 5 8 7 2 1 5 7 10 13 14 14 14 14 13 14 14 12 5 1 3 5 7 8 8 8 8 10 10 11 11 10 10 11 10 10 9 8 8 8 8 8 8 9 7 7 7 6 6 6 8 7 7 7 6 6 6 7 7 6 5 5 5 5 5 5 4 2 4 4 3 2 2 1 1 1 2 3 2 2
6 7 4 1 3 5 4 9 5 6 3 7 2 7 7 7 11 2 6 11 9 5 3 6 9 11 13 14 14 14 13 13 12 6 4 9 10 3 2 5 4 3 2 1 7 8 7 10 10 10 8 9 8 8 9 7 8 8 9 8 6 7 7 6 6 6 7 7 8 7 7 6 6 6 7 7 6 5 5 5 5 7 6 6 4 3 3 2 3 2 2 1 2 2 3 3 2
11 10 0 4 5 5 5 5 6 6 7 6 5 6 9 1 7 7 10 9 2 2 3 7 11 12 12 13 13 12 12 10 9 8 8 9 9 7 4 5 7 8 3 3 2 4 7 8 9 9 9 9 8 8 8 6 8 9 8 9 7 8 6 6 6 7 7 7 7 8 7 6 5 6 7 7 5 5 5 5 6 6 6 6 5 3 2 2 2 2 2 2 2 2 2 2 1
7 10 4 7 9 7 3 6 9 9 3 3 3 9 6 4 2 6 12 5 2 6 8 11 13 13 13 13 14 12 12 11 12 11 11 10 11 14 12 5 4 8 8 7 3 2 4 7 9 9 9 9 9 9 8 8 8 9 9 8 8 9 6 6 7 7 6 6 7 7 7 6 6 6 7 6 6 6 5 5 5 6 5 5 5 4 2 2 2 2 2 2 3 3 2 2 1
3 6 7 9 7 3 2 5 7 1 3 5 6 10 4 1 1 6 3 2 6 9 10 11 13 14 13 13 12 12 12 11 9 8 9 8 8 6 16 13 3 6 6 8 6 4 5 8 8 9 8 8 7 8 8 9 9 10 8 8 7 8 8 7 6 6 6 5 6 7 7 7 6 6 7 7 7 7 6 6 6 5 5 5 4 4 2 2 2 2 2 3 4 3 3 2 1
2 4 3 6 5 4 6 4 10 3 6 7 9 6 1 2 0 8 4 3 5 10 10 11 12 12 11 14 13 9 9 6 6 8 12 11 6 6 8 15 13 10 10 8 5 6 7 8 10 11 10 8 8 8 7 8 9 9 10 7 8 8 9 7 6 6 6 6 7 7 7 6 7 6 8 7 7 7 6 6 6 6 5 4 4 3 3 3 2 3 4 4 5 4 3 2 2
2 0 7 3 3 5 2 5 1 2 6 7 6 4 5 3 6 3 5 3 5 9 11 12 13 12 12 14 11 7 9 7 8 9 7 7 8 7 9 14 16 12 9 11 8 9 9 10 10 12 11 10 10 10 8 9 7 8 7 5 6 8 8 7 7 7 6 6 6 7 7 7 6 7 6 7 7 6 6 6 5 5 4 4 3 3 3 3 3 3 4 4 4 4 4 4 3
3 2 1 5 4 5 1 2 1 3 4 3 4 7 1 3 10 5 5 4 7 8 11 12 12 10 10 13 9 6 7 7 8 8 8 7 9 12 12 8 13 16 13 11 12 12 9 8 7 9 11 10 12 10 9 6 7 8 7 5 4 7 7 8 8 7 6 6 6 7 7 8 7 6 7 7 6 6 5 5 5 4 4 4 4 3 3 2 2 3 4 4 4 4 4 4 4
3 2 1 1 3 2 1 2 2 4 2 2 4 7 6 4 6 4 2 7 9 8 10 12 12 10 10 11 10 10 9 7 10 10 9 9 9 9 9 2 8 8 0 13 17 15 13 10 8 8 9 11 10 9 11 8 8 5 4 5 5 6 7 7 7 7 6 6 6 7 7 7 7 7 7 6 6 5 5 4 4 4 4 4 3 3 3 3 3 4 4 4 4 4 4 4 4
2 2 3 1 3 0 9 4 1 4 3 3 5 3 4 6 6 6 1 6 7 7 9 11 12 10 10 10 10 11 9 7 7 10 10 10 10 6 5 4 6 6 5 1 3 11 13 11 11 8 11 12 11 10 11 9 8 6 5 6 6 7 7 7 6 6 6 6 7 7 7 7 7 7 6 6 6 5 5 5 4 4 5 4 4 4 3 3 3 4 3 4 5 5 5 4 4
2 3 3 2 1 2 4 3 1 1 1 5 3 3 4 3 4 5 1 7 8 7 10 10 12 13 12 11 9 11 10 8 8 10 10 9 9 7 7 2 2 6 6 7 9 10 10 11 10 12 12 11 10 10 8 8 6 8 6 6 6 8 7 6 6 6 6 6 6 6 6 6 7 6 5 5 5 6 5 5 5 5 5 5 4 4 4 4 4 4 4 3 4 5 5 5 4
2 1 3 1 4 1 2 2 3 7 6 3 4 3 5 9 5 3 2 7 8 9 10 12 12 12 12 12 10 12 11 11 11 12 13 11 8 12 8 4 4 6 9 10 10 10 10 11 10 9 10 10 9 9 9 9 8 8 7 7 7 7 7 6 6 6 6 6 6 6 6 6 6 6 5 5 5 5 5 5 5 6 6 5 5 4 4 4 3 4 4 4 4 5 5 5 5
4 4 3 3 2 4 3 2 1 8 2 6 1 5 9 10 8 4 6 6 9 9 10 11 12 13 12 13 13 12 11 12 13 12 12 11 11 13 9 6 6 6 7 11 11 11 10 9 9 10 10 10 10 10 11 9 9 7 7 7 8 7 6 5 5 6 6 5 6 6 7 6 6 6 5 6 5 5 5 5 5 6 6 5 5 5 5 5 4 4 4 5 4 4 5 5 5
4 3 1 2 5 2 2 2 6 2 8 9 9 7 7 9 10 4 4 6 9 9 7 10 11 12 12 13 15 15 12 13 9 10 10 8 10 12 9 6 5 7 8 9 11 10 10 10 9 9 10 9 8 8 9 8 8 9 7 7 7 6 6 6 5 6 6 6 7 7 7 6 6 5 5 6 5 5 6 5 6 6 6 6 6 6 6 6 6 6 6 6 7 6 5 6 7
4 2 2 5 5 6 1 4 6 3 5 8 9 6 6 9 11 9 2 2 7 8 9 11 12 13 14 13 16 17 16 13 10 9 9 9 10 10 8 6 6 7 8 9 10 10 11 11 11 10 9 6 5 8 8 9 9 8 8 8 8 7 6 6 5 5 6 6 7 7 7 6 6 6 6 6 6 6 6 6 6 6 6 6 6 6 7 7 7 6 6 5 7 7 6 6 7
3 4 4 7 4 7 2 6 4 1 4 6 2 4 8 11 11 7 1 3 9 11 12 13 15 16 15 15 15 16 14 8 10 10 10 9 9 12 9 7 7 8 8 9 10 10 11 12 12 10 8 10 9 8 8 9 9 9 8 8 8 7 6 6 6 6 6 6 6 6 6 6 6 6 6 6 6 6 6 6 6 6 6 6 5 5 6 6 6 6 6 6 5 6 6 7 8
2 4 3 6 6 2 6 5 5 2 5 8 1 5 9 12 12 5 4 9 10 8 12 15 16 17 16 16 17 15 11 13 13 11 13 12 12 12 10 8 8 8 9 9 9 10 11 12 10 12 10 10 10 8 8 8 8 9 9 8 9 7 6 6 7 7 6 6 6 6 6 5 6 6 6 6 6 6 5 5 4 5 5 5 6 6 6 6 6 7 7 6 6 4 5 6 6
4 3 4 8 2 4 3 2 2 4 3 4 4 8 10 11 5 6 4 6 6 3 3 8 14 17 18 19 19 18 16 16 17 14 14 12 12 11 10 9 9 9 9 9 9 11 10 11 9 12 12 10 9 10 8 9 10 9 8 9 8 6 7 6 7 7 6 6 6 6 6 6 6 6 6 7 5 5 4 4 4 5 5 5 6 7 6 6 6 5 6 6 7 7 6 5 4
3 6 6 7 2 5 6 3 2 4 6 3 8 7 8 4 5 2 3 2 5 5 7 9 13 16 16 15 15 17 20 20 17 13 13 13 13 11 10 10 10 10 10 10 10 10 9 11 12 13 12 11 10 10 11 10 9 9 8 8 7 7 7 7 7 6 6 7 6 6 6 7 6 6 6 6 5 5 4 4 5 5 5 5 5 5 6 6 6 6 7 7 8 7 8 6 3
3 7 10 9 8 9 8 1 4 4 4 2 2 3 5 1 3 6 4 4 4 3 7 13 15 17 16 14 16 17 17 16 17 14 13 12 11 10 11 12 12 11 10 10 10 10 10 10 12 13 11 10 10 12 12 11 11 10 10 10 10 9 9 9 9 9 8 8 8 7 6 6 6 6 6 6 5 5 5 4 4 5 5 4 3 3 4 6 7 6 7 7 7 6 6 7 6
2 4 12 14 12 8 3 3 1 3 3 3 2 4 3 1 6 5 4 6 8 5 7 10 12 14 16 16 16 17 17 15 16 12 11 12 12 11 11 11 11 11 10 9 10 11 12 11 12 11 11 10 10 11 13 9 11 11 12 11 11 10 10 8 7 8 9 7 7 7 6 5 6 6 6 5 5 5 5 5 6 5 5 4 4 4 4 4 4 6 5 5 6 6 6 6 7
4 1 4 5 5 7 8 8 7 5 4 4 3 5 7 8 4 2 5 9 9 5 5 6 9 12 15 15 14 14 15 16 14 14 14 13 11 10 10 9 9 9 9 10 10 11 13 12 12 12 9 10 10 11 12 12 12 11 11 10 9 9 9 10 9 8 6 6 8 8 7 6 5 5 5 4 4 4 5 6 5 5 5 5 5 5 5 5 5 3 4 5 4 5 6 5 6
2 2 6 7 8 6 4 5 4 2 2 6 2 4 3 5 3 1 3 8 7 3 3 1 4 7 10 13 11 12 13 15 12 8 11 11 7 7 7 7 7 8 9 10 9 10 11 11 12 11 11 10 10 13 13 13 11 11 10 9 7 5 8 9 8 6 7 6 7 5 5 5 4 3 3 4 4 5 5 5 5 5 5 5 5 5 5 5 5 5 6 6 6 5 4 2 4
4 5 3 4 4 3 5 3 4 3 3 6 3 4 5 6 3 2 1 3 7 7 10 7 3 4 6 9 8 7 6 3 6 6 5 3 3 5 5 5 6 7 7 8 9 10 10 11 12 12 12 11 12 13 12 13 12 10 10 8 9 7 6 6 6 6 6 7 7 5 4 4 3 3 3 3 4 4 4 4 5 5 5 5 4 4 5 5 5 5 7 7 7 6 3 4 4
5 8 5 3 3 2 2 1 1 3 2 8 4 7 5 6 2 3 1 4 5 10 8 8 7 1 3 5 5 2 3 6 5 5 6 5 4 5 6 6 6 6 6 7 8 8 9 10 11 12 12 11 13 14 14 14 11 12 9 10 11 11 9 8 7 6 6 6 6 6 5 4 3 4 4 3 3 4 3 3 3 4 3 3 3 4 4 5 6 5 5 6 6 6 5 5 4
1 1 1 2 2 1 2 1 1 2 5 1 3 5 7 7 2 2 4 6 7 8 11 10 7 2 3 2 5 7 6 8 10 9 10 12 10 8 5 4 6 7 7 7 7 7 8 9 11 12 11 10 13 13 14 13 12 10 8 10 11 10 10 8 9 8 8 8 7 6 4 4 3 3 3 4 4 4 4 3 3 3 3 3 3 3 3 4 4 4 4 4 4 5 4 4 4
5 3 1 3 1 0 2 3 3 5 5 4 2 4 2 9 3 5 7 8 9 8 7 5 3 2 7 10 10 9 11 13 12 13 10 10 11 11 9 7 7 8 8 8 8 7 7 8 11 11 11 10 12 14 14 11 10 9 8 10 10 9 8 9 9 8 7 7 6 6 5 5 4 3 3 4 4 5 4 4 3 3 3 2 3 3 3 3 3 3 4 4 4 5 5 5 4
7 7 6 5 3 2 1 2 1 4 3 1 2 3 5 3 2 7 7 8 8 8 7 6 9 11 11 13 12 11 12 11 6 8 7 3 4 6 7 8 8 7 7 8 8 7 7 6 7 9 9 10 8 12 10 9 8 8 8 8 8 8 7 7 8 8 7 6 6 7 6 6 6 5 4 4 5 5 4 3 4 3 3 3 2 2 3 3 3 3 3 3 4 4 3 4 4
9 3 9 4 7 5 3 5 5 6 4 2 3 5 3 6 4 5 6 7 8 7 9 9 10 11 10 10 11 10 9 10 11 10 9 7 5 6 7 6 6 6 5 6 6 7 6 3 1 4 7 3 4 5 8 8 8 8 8 8 8 6 7 6 6 6 7 6 6 7 5 5 6 4 4 4 5 5 5 4 4 5 3 3 2 2 2 2 2 2 2 2 2 2 3 3 3
2 1 1 1 4 1 5 0 3 2 2 1 4 2 1 1 2 2 2 9 8 9 11 9 7 8 10 8 7 6 5 4 5 9 11 9 7 6 7 8 7 5 7 5 5 5 7 8 9 11 10 8 6 1 1 7 6 7 9 9 8 7 5 5 4 5 5 7 7 7 6 4 4 4 3 4 4 4 5 6 5 5 4 3 2 2 2 2 2 2 2 3 3 2 3 4 3
5 5 7 4 3 4 5 2 4 1 1 2 2 4 2 3 4 6 6 9 9 9 9 8 6 6 7 7 6 5 6 8 7 7 9 12 9 7 9 7 7 6 6 8 8 9 11 11 12 12 11 9 8 9 4 2 4 4 5 5 6 6 7 7 6 8 7 5 5 4 4 4 3 3 3 2 4 3 4 5 6 5 5 4 3 2 2 2 2 2 2 3 3 2 2 3 3
7 6 4 4 1 3 2 3 1 0 4 2 1 0 2 2 2 3 7 7 8 9 9 9 7 7 8 6 7 6 7 9 9 10 7 9 10 9 8 7 4 7 10 11 12 10 10 13 17 17 16 16 14 9 7 6 7 6 6 5 5 6 7 7 6 7 6 5 4 3 4 4 4 3 3 3 4 4 4 4 5 5 5 4 4 3 3 3 3 2 3 3 3 3 3 3 2
2 2 5 5 2 4 2 1 2 2 1 2 2 1 3 4 2 3 6 7 8 9 8 8 9 9 9 8 9 8 7 6 5 7 7 7 7 9 9 7 6 8 7 11 12 12 10 9 13 17 18 17 15 11 10 6 6 6 6 7 7 6 6 6 5 6 6 6 6 5 5 5 5 5 4 4 5 5 4 4 4 5 4 5 4 4 3 3 3 4 3 3 3 3 3 3 2
3 2 4 3 2 1 4 2 1 2 1 0 1 1 2 2 2 4 4 3 4 8 9 9 9 9 7 7 8 8 8 6 4 6 5 6 7 7 7 7 6 10 14 12 11 9 12 11 10 10 11 11 11 10 9 10 7 7 7 7 6 6 7 7 6 7 6 7 7 7 6 6 5 4 4 4 5 5 6 6 4 5 5 4 4 3 3 4 3 3 3 3 3 4 5 4 4
4 4 2 2 2 2 2 2 1 3 1 2 1 2 2 3 2 1 2 1 2 4 8 7 8 9 8 8 7 7 8 7 6 6 3 4 5 6 6 6 9 7 7 11 9 11 9 8 7 8 10 10 11 11 10 9 7 7 8 8 8 7 7 7 7 7 7 7 6 6 6 6 6 5 4 5 5 6 6 6 6 5 5 4 4 4 3 3 4 4 3 3 4 4 5 4 4
1 5 7 7 8 6 6 4 2 1 3 2 3 3 3 4 2 3 2 1 2 1 4 5 6 8 8 7 9 10 6 7 6 4 5 5 6 6 8 7 7 12 12 11 7 5 7 8 8 8 9 9 8 7 8 9 8 7 8 8 8 7 7 7 7 7 6 6 6 5 6 6 7 5 5 5 5 5 5 6 6 6 5 4 4 4 3 3 4 4 4 2 3 3 4 5 4
Wind_Direction
237 140 120 178 244 238 222 20 226 112 230 241 291 192 309 215 310 287 238 222 243 154 209 340 95 204 246 321 296 29 36 218 32 194 167 39 149 149 152 140 139 140 142 138 137 138 136 134 132 130 128 129 128 126 127 129 129 127 126 124 125 127 128 130 129 131 130 129 131 132 136 135 133 132 134 136 137 136 136 136 135 130 127 127 127 128 130 128 126 122 122 120 118 118 116 113 111
164 117 63 268 251 257 146 304 82 150 339 280 233 92 267 92 184 243 308 240 19 308 320 315 279 126 125 51 73 180 117 15 344 27 88 128 124 138 146 143 143 140 139 138 136 136 137 136 133 132 130 130 129 127 126 127 127 128 129 129 127 128 130 130 129 128 128 130 133 138 137 135 133 135 136 136 137 135 129 131 131 126 125 128 130 131 130 128 125 125 125 123 122 121 119 118 119
155 169 147 216 109 10 106 289 229 53 205 245 236 211 47 243 241 271 243 264 286 302 311 306 277 198 239 192 236 334 104 48 109 96 98 140 137 148 146 144 144 137 136 135 135 137 136 137 134 132 131 131 132 132 131 131 129 127 126 127 129 130 130 130 131 131 131 134 139 140 140 140 140 137 134 134 135 128 123 122 124 127 126 131 131 132 130 128 128 126 124 122 118 118 119 119 121
116 331 202 225 117 277 132 84 114 173 226 282 317 185 226 228 244 267 289 280 285 291 300 317 281 70 265 208 6 232 65 60 7 134 130 153 150 149 143 140 142 134 131 135 138 139 139 139 136 133 133 132 134 134 134 133 133 130 131 131 131 131 131 132 133 133 137 143 146 147 148 144 141 133 130 128 118 111 111 121 127 127 126 132 134 131 128 127 127 126 126 123 118 117 115 114 116
173 93 300 37 166 119 151 59 77 186 243 168 242 173 225 221 286 313 287 288 291 289 290 255 212 65 45 50 14 314 36 67 128 159 139 128 140 146 139 139 140 136 133 136 140 138 136 138 136 135 132 133 134 134 134 134 133 133 134 133 133 132 133 134 134 135 138 140 142 142 137 133 134 130 124 124 118 118 119 115 115 121 131 136 132 124 126 128 127 127 125 121 119 115 114 110 110
93 118 35 277 343 40 92 163 190 224 248 98 243 329 168 225 297 298 294 288 287 282 284 211 269 157 121 41 27 93 344 297 141 135 146 140 146 146 138 138 139 138 134 139 140 138 139 139 137 135 134 134 134 134 134 133 134 136 134 133 135 134 133 133 135 138 139 136 132 129 135 137 132 126 126 128 125 118 112 111 112 118 124 132 129 128 129 127 126 124 123 121 117 113 109 108 109
135 143 41 99 104 294 213 221 235 235 242 187 261 273 295 322 290 301 298 316 240 286 205 217 164 137 148 122 123 50 328 253 181 145 164 143 142 143 135 138 135 135 136 141 142 138 141 139 139 138 136 134 134 133 134 134 136 137 133 133 135 135 135 136 138 135 133 130 130 131 131 122 123 122 126 126 121 119 118 119 119 119 122 125 131 130 128 126 126 121 117 114 110 106 104 107 115
42 254 59 183 105 260 176 246 252 166 246 194 275 287 316 303 293 286 292 304 324 244 260 19 255 277 68 211 194 43 35 25 102 127 137 143 142 141 137 138 137 136 136 141 139 139 138 140 142 140 135 135 136 136 136 137 139 138 135 134 133 133 134 136 134 131 134 128 128 127 125 121 114 122 123 120 120 122 122 123 122 122 128 129 132 129 125 122 119 117 114 112 111 109 108 110 115
34 84 331 162 165 63 179 236 273 166 274 251 266 246 278 278 280 277 281 251 284 261 257 238 214 232 131 127 77 58 43 78 115 122 139 141 144 142 140 139 135 136 136 141 139 137 144 144 144 140 137 137 135 136 138 140 141 140 136 134 136 136 135 136 133 129 127 124 125 125 120 113 114 123 124 126 127 126 127 127 123 121 125 127 129 124 122 120 120 114 114 113 110 106 103 108 114
98 286 155 124 88 213 333 243 238 206 238 258 285 302 287 281 283 253 279 291 252 266 253 192 147 240 122 105 137 73 68 99 122 128 140 143 139 140 136 137 138 138 139 143 140 143 146 147 144 140 137 137 136 138 141 142 141 138 136 136 134 133 133 132 126 124 120 118 119 121 115 112 115 124 127 131 131 129 128 127 123 119 119 123 125 123 121 119 113 115 113 109 103 98 99 106 115
159 39 351 168 174 217 227 254 235 261 260 297 294 258 255 288 278 287 273 278 295 260 130 179 157 142 155 101 69 85 133 139 136 134 141 139 141 141 138 137 137 142 144 144 142 145 146 151 145 139 136 136 137 138 139 140 139 138 136 133 132 132 134 130 128 124 124 124 124 121 116 118 122 127 131 134 129 130 132 129 124 120 120 122 123 122 119 114 111 109 105 98 88 82 91 105 115
145 202 182 166 209 215 222 256 274 296 290 272 295 261 2 298 274 317 330 319 346 235 206 189 175 154 123 142 131 112 122 144 138 139 138 140 143 140 138 139 141 145 145 145 145 148 150 147 149 141 136 138 138 138 138 137 137 135 133 131 130 131 130 129 127 127 127 124 123 120 119 122 128 129 129 131 125 127 129 128 126 121 118 121 124 122 112 104 106 106 101 96 88 78 82 99 110
129 111 151 169 203 214 56 279 285 306 307 265 40 9 321 303 356 335 317 280 267 270 222 199 121 196 138 159 86 135 141 135 140 141 142 143 138 134 133 139 141 143 145 147 147 148 148 149 146 150 144 140 137 136 135 135 133 131 132 132 131 133 134 131 129 129 130 124 123 122 125 129 131 130 129 130 125 130 132 130 130 123 119 122 120 113 109 112 108 104 100 94 84 77 77 89 96
183 207 162 213 50 246 214 277 233 300 318 25 191 306 324 338 351 331 304 342 17 250 4 146 161 118 87 112 135 167 162 142 144 145 144 137 135 133 135 138 141 143 146 150 149 149 150 149 149 151 149 146 142 135 132 132 131 132 133 134 134 135 136 135 133 134 131 128 126 127 131 132 131 132 131 128 123 122 123 128 131 123 117 114 113 113 114 106 102 99 94 89 88 84 83 87 93
203 166 147 104 200 195 176 232 319 198 196 101 48 337 339 16 325 322 3 330 31 323 45 108 43 235 177 173 181 192 161 149 146 142 138 135 134 136 139 142 143 144 148 151 153 153 153 151 152 153 154 151 148 143 145 135 135 135 135 136 138 138 138 136 135 134 134 134 134 135 136 134 134 131 123 118 115 108 118 125 133 128 121 117 114 110 107 104 102 99 96 94 93 91 86 89 98
131 153 63 217 231 218 179 219 170 301 294 293 347 312 331 70 12 339 12 288 54 65 340 146 232 347 22 198 112 155 149 145 142 138 134 136 136 137 140 144 146 147 151 154 157 159 155 155 154 156 157 155 150 147 146 143 138 138 140 139 136 138 138 137 138 139 138 137 134 128 127 126 126 131 128 120 107 100 98 113 125 128 123 118 115 113 107 104 103 99 96 97 96 96 90 87 95
138 265 171 103 248 184 163 212 158 233 24 276 325 9 360 327 359 317 341 178 147 76 1 19 306 329 274 45 119 133 142 139 137 137 138 140 140 146 148 150 148 150 156 162 162 163 160 158 157 156 158 153 148 148 146 143 143 142 140 137 135 137 138 140 140 137 136 131 129 126 131 131 130 129 127 119 116 115 103 110 116 114 112 113 115 110 106 104 98 93 94 99 104 100 92 90 78
195 184 189 229 238 189 171 210 188 55 313 346 337 1 344 333 347 351 276 137 94 127 28 340 7 17 356 105 125 135 138 141 145 144 147 146 153 155 157 157 157 160 164 165 169 165 162 161 160 156 155 153 150 147 145 145 146 149 145 143 144 141 143 141 139 137 134 134 133 133 130 129 129 128 124 123 122 123 117 107 113 111 109 108 107 105 104 103 98 97 102 107 104 90 58 127 106
190 101 217 241 157 215 189 51 244 327 342 322 320 10 348 319 310 338 329 343 280 206 220 353 347 61 97 115 130 139 145 144 149 153 154 157 165 165 163 162 165 165 168 168 168 167 165 162 161 158 156 153 152 148 147 147 141 135 143 144 143 149 139 139 136 137 136 136 136 132 130 135 135 133 127 123 121 118 116 113 114 112 109 105 101 101 106 108 101 94 88 82 72 44 145 98 112
151 214 215 230 118 137 228 246 295 241 293 315 328 331 323 309 259 313 298 318 270 299 234 212 222 157 130 132 141 143 149 151 154 158 163 166 170 171 169 168 170 170 168 169 166 169 165 162 163 158 156 157 154 152 150 144 137 143 146 144 150 131 135 138 139 135 133 131 132 133 140 138 134 124 124 121 123 127 119 111 109 109 104 103 107 111 105 92 91 84 80 84 128 118 105 131 130
144 222 230 116 161 226 139 214 261 292 239 304 317 310 306 25 325 284 335 315 297 275 236 208 197 169 144 147 148 150 152 154 157 165 172 174 176 175 173 170 170 167 169 169 166 165 167 164 163 158 159 161 158 152 153 145 141 143 143 139 144 133 134 134 133 135 139 140 136 137 139 136 132 127 132 129 127 129 131 133 131 125 118 107 103 107 110 98 89 97 105 102 96 130 123 130 156
142 237 40 122 91 288 108 290 283 269 322 308 302 315 317 317 244 270 298 287 300 332 251 216 192 161 155 155 153 151 150 154 161 174 184 187 179 169 161 160 161 168 168 166 165 168 168 167 166 161 160 159 155 154 152 147 142 143 138 136 139 138 139 136 137 143 143 140 138 139 137 132 128 130 133 130 132 133 131 128 116 109 105 102 104 113 113 114 115 107 97 106 123 150 133 148 157
226 242 261 205 242 272 269 270 272 38 310 300 303 311 317 302 306 278 234 242 268 184 167 218 187 160 152 153 152 152 150 154 169 179 185 198 312 140 134 150 160 171 166 167 166 168 167 166 163 156 158 159 152 141 141 143 146 138 140 145 147 142 147 142 144 146 146 145 141 141 140 137 137 138 130 133 128 129 121 119 116 113 107 104 112 118 108 103 99 91 84 106 123 115 114 132 150
251 251 76 291 147 226 232 263 280 293 252 272 294 300 282 302 318 92 295 260 258 262 255 209 163 148 144 153 158 157 156 155 161 147 67 56 47 10 190 154 151 73 60 151 163 162 162 156 156 157 152 152 143 135 140 144 135 138 146 140 139 152 151 147 148 152 149 148 146 146 144 145 142 133 134 133 134 128 124 124 125 125 120 120 118 111 111 101 104 105 127 128 124 96 114 129 136
223 250 48 261 226 235 257 266 276 268 257 267 267 274 275 222 275 320 280 282 65 216 165 143 137 142 146 152 155 152 149 130 131 125 111 104 123 102 353 83 84 90 87 242 24 134 157 151 147 150 148 145 133 142 137 137 143 145 140 143 150 156 163 152 156 153 152 151 149 147 150 147 145 143 141 140 139 131 129 131 132 124 122 124 126 108 106 115 114 121 107 112 96 80 68 81 82
228 247 264 276 269 268 255 273 263 261 278 202 237 263 276 301 274 246 257 312 48 115 125 128 135 143 149 151 160 144 125 137 150 154 157 154 183 153 125 47 48 72 64 88 111 247 153 139 147 151 144 140 144 147 122 138 147 148 145 146 160 162 162 163 157 157 155 151 150 154 157 154 151 148 143 143 140 133 134 131 131 133 129 132 135 130 122 134 118 111 120 106 85 83 72 49 54
182 230 240 258 273 322 284 245 278 286 250 174 248 276 309 14 321 289 87 54 125 117 121 132 140 145 150 156 137 135 146 146 141 152 166 179 183 228 140 136 122 106 125 154 147 163 166 160 155 153 142 134 133 130 133 143 159 150 147 151 154 162 162 157 160 156 150 149 149 156 158 158 150 147 145 146 145 145 148 148 147 144 141 136 132 126 122 92 95 102 99 94 96 94 72 52 74
216 237 265 249 267 258 245 276 265 303 285 191 210 261 25 292 248 259 30 97 142 126 132 137 141 148 134 132 142 146 136 127 140 178 179 193 160 174 154 136 160 168 167 159 163 142 159 167 157 158 149 138 139 134 134 150 158 154 155 148 146 156 160 157 156 157 155 151 153 156 159 159 154 148 150 151 150 151 152 149 146 147 139 136 134 130 127 115 116 118 109 102 105 109 111 88 81
256 305 281 308 325 303 143 233 293 114 258 181 184 260 231 143 239 264 356 142 156 135 139 144 147 141 127 137 144 147 146 161 170 191 193 183 157 177 192 168 156 151 170 168 158 148 164 161 161 163 153 148 155 150 137 165 152 153 151 144 142 153 166 159 159 163 159 155 154 156 159 162 160 151 154 154 153 155 154 151 149 144 140 139 140 137 130 131 138 136 117 115 126 134 124 108 97
318 146 279 294 323 299 76 268 264 232 258 102 169 267 179 196 244 301 308 170 155 147 146 147 153 133 135 136 148 153 147 170 191 188 188 177 175 177 199 229 161 165 163 168 158 162 160 160 160 160 157 162 170 160 145 136 152 155 149 139 147 158 167 167 165 162 159 155 158 163 164 168 167 158 156 157 158 156 155 157 153 150 140 139 140 147 149 152 141 138 132 139 132 134 107 102 125
239 47 167 345 315 288 226 336 322 280 65 228 200 254 281 268 282 321 332 198 171 156 156 152 157 141 145 142 151 164 175 195 187 183 194 191 187 190 207 78 7 7 220 164 172 164 158 161 158 163 159 162 165 159 162 140 142 128 129 149 167 170 168 169 165 163 162 161 163 168 169 170 169 167 165 160 161 157 157 157 159 152 147 151 155 150 155 152 151 149 148 139 128 121 108 94 98
358 240 229 113 242 166 321 77 290 14 40 24 203 257 282 311 314 336 244 189 195 169 160 161 164 143 153 149 156 164 176 207 205 193 195 199 197 194 171 81 15 46 66 75 111 146 152 155 155 153 161 158 159 157 155 142 141 132 145 163 175 176 171 172 167 165 163 163 169 169 176 173 174 170 168 166 165 169 166 163 161 157 157 160 159 149 154 152 147 143 129 137 134 124 116 103 106
26 251 256 276 163 318 284 96 18 136 281 50 342 307 328 256 187 320 198 196 197 184 168 168 175 157 163 164 163 168 169 194 212 207 207 201 202 193 174 134 55 97 94 104 129 135 145 154 145 147 153 156 153 146 135 111 136 145 149 159 185 176 171 170 169 165 164 167 168 171 174 173 179 172 169 163 173 172 169 164 160 161 163 164 159 154 154 146 151 140 124 118 131 130 127 122 117
198 28 246 43 276 75 251 321 124 17 12 355 42 312 271 281 278 337 229 210 208 205 183 176 181 169 173 171 173 173 175 183 199 208 207 203 196 191 174 154 142 136 119 123 129 135 137 151 151 147 148 150 145 140 133 140 157 147 154 166 180 172 165 165 165 167 167 166 169 175 174 173 175 173 173 172 182 178 173 165 159 159 160 159 155 157 148 147 150 146 128 123 130 134 133 132 123
205 195 232 225 185 213 297 279 107 333 108 316 225 258 268 276 277 243 252 217 215 215 190 183 183 183 175 183 185 179 182 188 198 206 205 197 198 193 187 160 131 137 149 147 150 152 151 149 146 149 150 150 145 141 138 147 150 141 155 168 171 158 156 156 161 164 166 166 173 173 173 174 173 174 174 178 178 174 171 161 158 158 160 159 156 156 148 147 146 144 138 123 121 129 133 134 130
134 137 244 263 277 227 211 242 297 315 320 316 304 293 298 291 289 257 238 234 225 224 174 184 189 196 186 192 196 197 194 201 195 200 206 188 192 194 192 169 139 138 149 151 150 155 162 151 150 149 154 149 135 135 147 153 157 157 162 162 156 152 151 156 165 166 167 173 179 175 173 176 174 177 177 177 178 171 169 163 155 158 158 159 160 163 160 162 156 146 140 133 126 121 130 137 135
113 138 235 263 272 264 207 243 263 236 277 265 273 270 255 271 274 278 284 288 236 229 191 189 193 197 197 198 202 203 201 205 189 199 207 192 189 195 191 176 162 151 153 154 159 166 171 169 152 150 130 112 135 159 160 159 163 155 166 163 157 152 153 155 159 165 175 178 178 177 176 178 178 175 178 179 182 177 173 162 159 160 160 166 168 171 168 165 160 150 137 136 136 132 135 137 134
210 250 260 274 235 281 104 279 262 45 226 264 213 257 262 262 273 277 55 230 234 218 203 200 197 198 202 204 202 203 204 209 195 207 215 205 194 193 182 180 175 166 162 163 168 173 170 167 161 143 130 140 154 177 172 166 169 169 165 163 154 154 154 160 163 169 175 173 175 175 175 178 173 173 174 182 181 177 171 165 166 163 166 167 165 167 159 157 159 144 144 132 146 145 141 149 146
163 229 259 271 264 291 261 258 286 248 197 257 239 270 274 276 273 306 254 240 240 225 204 199 193 196 204 210 208 198 197 206 203 205 204 207 202 189 182 176 179 175 166 170 172 167 166 164 148 147 152 149 158 173 176 177 171 168 165 159 156 151 160 161 161 166 169 170 170 170 175 173 170 172 171 175 176 175 168 164 164 162 168 157 157 156 160 162 162 155 155 150 147 150 141 151 146
193 191 225 254 45 325 284 193 61 157 216 296 283 288 283 280 296 269 254 247 273 329 284 223 204 200 202 204 203 203 201 202 208 195 196 197 197 190 182 176 172 169 164 168 175 168 163 166 150 152 158 153 159 178 180 180 175 165 154 155 151 149 154 153 154 156 162 163 164 169 172 170 173 176 175 175 177 162 161 165 161 173 167 168 169 162 160 158 164 160 165 157 155 151 156 154 158
200 226 236 257 230 229 231 290 326 276 246 237 264 271 268 252 289 244 180 253 283 270 234 227 220 216 212 209 203 203 204 202 205 194 194 194 193 191 180 173 169 167 169 171 175 166 163 156 156 156 159 161 167 180 183 164 150 139 136 141 139 132 137 149 150 152 158 160 155 165 165 168 172 173 171 175 168 159 161 168 171 168 171 175 173 167 167 170 177 174 179 167 177 166 161 164 169
231 215 224 240 229 236 225 13 322 311 290 127 252 261 249 151 266 255 282 312 290 289 231 217 213 212 213 208 206 208 210 208 209 203 196 195 194 181 179 174 171 168 170 174 175 161 155 153 158 161 159 156 174 181 167 160 163 153 150 151 155 157 157 163 167 161 159 162 161 152 155 167 165 165 169 170 166 164 163 169 169 170 176 168 174 177 178 177 183 182 188 187 184 179 166 164 163
245 252 196 218 226 227 119 162 157 259 245 100 312 312 280 292 271 261 296 294 274 275 242 228 212 215 212 210 206 205 200 197 208 207 193 193 194 182 179 178 173 168 170 166 160 155 154 158 161 162 165 158 171 170 163 161 162 165 167 168 168 167 163 165 161 159 159 151 144 150 150 158 165 164 166 169 170 171 166 169 174 178 165 169 179 183 178 194 187 191 186 196 194 177 174 171 170
230 251 167 196 195 207 203 198 214 251 345 271 165 234 265 286 272 219 299 293 272 243 237 235 221 218 218 218 214 213 207 200 197 201 196 195 190 181 178 178 172 169 163 158 151 153 157 160 162 165 159 157 167 164 166 168 166 169 172 173 167 161 163 158 158 155 141 135 142 147 152 156 166 168 160 161 164 167 165 166 171 173 169 169 191 192 185 178 184 165 164 209 211 197 192 189 169
237 166 173 174 198 202 161 194 202 251 294 276 167 142 239 242 241 143 337 310 307 13 60 289 260 241 232 226 222 217 208 202 195 188 196 197 181 173 165 164 162 167 172 165 152 154 157 161 164 165 163 160 162 166 172 174 172 171 171 164 146 135 142 146 145 137 142 139 138 143 149 143 143 140 156 156 162 165 167 169 172 176 181 175 191 186 170 181 179 180 176 191 203 202 204 171 178
253 127 106 79 102 116 189 191 198 181 221 264 181 180 261 270 266 275 71 268 311 347 353 353 316 283 259 239 228 217 198 104 182 164 161 164 138 140 146 146 161 172 174 162 152 154 156 163 165 165 166 166 164 168 174 178 175 169 167 156 139 132 129 126 135 137 141 150 145 147 141 145 144 141 142 157 160 168 166 166 175 176 179 177 187 171 158 170 184 183 190 196 192 186 192 199 204
92 132 127 103 75 97 87 60 179 176 229 253 120 189 236 284 246 257 298 37 340 330 338 0 354 295 286 288 275 105 116 116 122 106 74 63 100 118 122 149 167 171 170 154 148 158 160 165 166 167 167 165 164 174 177 178 175 172 161 151 140 138 139 138 136 141 142 150 154 153 153 144 149 139 140 144 155 156 154 169 174 172 173 172 177 166 176 178 184 194 194 198 194 191 195 195 204
221 114 163 133 120 109 156 116 191 232 255 87 182 206 196 235 227 76 40 4 347 334 321 324 341 359 153 65 91 97 105 88 79 59 64 60 42 47 65 132 178 181 172 169 166 161 169 168 169 170 169 165 166 175 176 175 171 168 151 146 143 145 147 149 150 151 155 160 157 154 145 142 141 127 130 132 140 147 148 149 146 147 155 166 171 178 180 182 173 182 185 193 196 201 200 199 206
196 181 205 225 155 155 188 186 206 214 246 90 98 151 175 235 297 23 2 359 358 357 334 304 318 132 116 85 85 104 110 107 107 114 119 146 170 174 172 170 171 182 184 185 183 169 168 171 174 175 172 156 175 169 174 166 160 156 152 151 146 149 152 153 154 152 157 160 161 154 158 158 143 143 142 139 137 150 147 141 146 144 139 145 142 158 158 168 167 177 180 190 189 192 195 201 204
175 189 179 178 190 142 223 178 341 307 274 87 235 143 262 330 60 32 7 7 28 39 56 81 83 87 97 103 101 103 108 110 114 125 132 157 152 133 148 172 187 198 199 188 177 167 166 170 183 180 182 156 171 166 153 146 159 151 152 152 149 151 151 155 157 156 157 160 161 162 167 160 164 160 155 149 145 150 139 126 129 117 105 119 135 140 152 164 175 181 167 178 174 183 189 202 209
191 143 179 209 173 184 195 198 227 241 277 72 85 174 216 211 80 7 38 39 46 62 77 91 102 102 109 115 115 118 128 149 158 151 143 137 147 146 147 162 173 190 181 167 160 162 148 80 110 218 117 104 114 81 126 158 159 156 158 159 156 154 150 157 154 143 149 155 160 163 164 159 163 155 146 125 139 139 126 126 123 123 124 127 134 145 142 147 150 161 142 134 128 140 167 182 176
144 160 37 169 227 142 248 273 257 244 205 180 162 251 1 30 125 66 44 61 59 73 87 94 96 114 118 123 134 141 160 145 120 127 134 146 167 152 166 148 176 190 177 139 144 116 78 80 66 46 68 71 67 23 240 156 164 160 164 165 159 154 134 118 108 122 148 162 162 163 163 160 144 132 115 130 136 140 136 131 124 115 114 112 108 116 137 151 152 163 145 142 134 137 158 173 161
158 167 199 213 39 138 91 106 61 70 332 243 70 274 192 165 115 62 63 72 75 77 75 83 93 111 118 118 138 145 131 125 105 128 138 128 139 158 148 163 179 174 162 147 120 107 110 101 88 85 92 111 156 190 177 144 136 142 155 154 141 131 131 144 151 155 160 163 157 153 145 130 121 130 127 121 135 129 130 131 123 120 115 112 112 114 133 145 157 157 146 142 129 133 150 143 152
113 210 203 81 175 25 158 231 81 206 243 252 140 241 307 206 180 90 63 72 77 79 87 86 84 76 79 94 108 119 121 110 91 75 88 111 112 120 129 130 162 178 150 113 111 116 129 137 134 138 146 164 181 165 173 164 146 141 143 147 143 152 157 152 148 150 144 143 130 120 121 139 142 127 126 129 129 131 126 125 122 121 119 121 122 124 129 128 135 120 116 110 104 128 125 119 124
247 335 136 196 168 204 41 127 227 203 223 259 167 329 261 242 105 118 61 61 60 69 82 82 80 73 71 87 100 98 99 100 83 73 68 73 87 126 124 126 148 129 110 123 135 141 150 158 154 151 163 167 167 161 156 149 150 149 158 163 161 155 149 141 137 131 136 141 147 151 150 136 128 129 130 134 137 139 137 130 126 127 126 124 126 121 125 118 120 119 116 110 122 139 125 111 111
100 138 146 12 260 187 173 193 11 265 244 128 204 205 272 172 66 71 70 42 33 78 78 81 78 67 57 55 69 100 100 91 62 60 37 67 81 100 124 138 142 150 132 139 141 153 166 162 163 167 158 147 146 146 149 151 157 151 155 153 157 152 151 148 148 147 151 156 156 148 142 143 133 127 125 138 144 148 149 143 139 134 131 127 122 109 105 107 105 92 103 106 111 123 114 111 112
158 195 183 161 53 320 12 67 249 257 192 200 225 237 189 82 60 60 50 24 31 82 103 94 91 90 83 73 70 58 65 66 67 88 112 103 98 112 95 104 122 97 130 145 158 169 168 147 159 165 148 151 153 156 155 152 147 150 148 155 152 150 150 149 153 160 157 155 150 145 145 134 130 132 142 147 149 153 153 146 141 140 137 132 124 118 105 107 102 96 86 92 104 105 108 107 114
292 203 196 190 149 165 186 207 92 252 224 193 182 237 88 79 62 71 47 106 163 134 141 110 109 106 96 88 89 87 57 83 86 108 140 137 121 123 122 127 131 141 149 154 172 170 146 152 172 170 148 148 145 148 154 152 159 155 153 150 150 151 153 154 156 159 150 148 145 140 136 139 139 138 154 148 150 149 148 145 137 134 129 124 125 116 115 111 110 106 95 78 95 101 98 102 108